Theta_e
343 345 348 346 345 346 346 346 346 344 343 343 341 340 342 342 342 343 343 343 344 345 346 347 347 348 349 348 348 347 343 342 341 341 341 342 343 343 345 347 346 347
346 346 348 347 346 347 347 347 346 344 342 342 342 340 342 343 343 343 344 344 344 345 346 346 346 347 349 349 350 348 345 344 343 342 342 343 344 344 345 347 346 346
347 348 347 346 346 347 347 347 345 344 342 342 343 341 342 344 344 344 346 347 346 344 345 346 345 345 346 348 350 348 346 347 345 343 342 342 344 344 344 346 347 347
346 347 346 345 345 344 345 345 343 343 343 343 342 342 343 345 345 346 348 350 349 346 343 345 345 344 343 345 346 344 344 347 346 345 345 342 343 345 345 345 348 349
345 346 345 345 345 343 342 342 341 342 344 344 344 343 343 344 346 348 349 350 349 346 343 343 345 344 342 342 343 341 341 344 345 345 346 345 344 345 346 347 350 351
346 345 345 346 345 344 344 343 341 343 345 345 346 345 345 346 347 349 348 348 347 345 343 343 344 343 342 342 342 342 341 343 344 344 345 346 345 344 344 345 348 350
347 346 346 346 346 346 346 345 344 345 347 347 348 349 349 349 350 350 349 348 347 346 344 344 344 344 343 343 342 342 342 343 344 344 345 346 346 345 345 344 345 347
347 347 346 346 348 348 347 347 348 348 349 349 349 351 352 351 350 350 351 350 348 346 345 345 345 345 344 344 343 342 342 342 343 343 346 348 349 348 347 346 346 347
346 347 347 346 349 350 349 349 351 351 350 350 351 352 353 353 352 351 351 351 349 347 346 346 348 348 347 346 345 344 343 343 342 343 345 347 348 348 348 346 345 345
346 346 348 348 350 352 350 350 352 353 351 351 353 353 353 353 354 353 352 351 351 349 348 349 351 352 351 350 349 347 347 346 344 343 344 346 347 349 351 349 346 346
347 347 348 350 352 353 352 351 353 353 353 353 354 354 354 354 355 354 353 352 352 352 350 351 353 353 353 354 352 349 349 350 349 346 345 346 348 350 351 351 349 348
352 351 349 350 352 353 353 353 353 354 355 354 353 353 353 354 353 354 354 354 354 353 353 353 354 353 353 354 352 349 349 352 352 351 351 351 351 352 352 352 350 349
355 353 351 351 350 351 352 354 354 355 354 353 353 352 353 353 352 352 353 354 354 353 354 354 354 354 354 354 352 350 349 351 352 353 355 354 353 354 354 354 354 354
353 353 352 352 351 350 351 352 354 355 354 352 352 353 353 353 352 351 351 352 353 353 353 354 352 354 355 354 353 352 351 352 353 353 355 355 355 355 356 356 354 352
352 352 352 352 353 352 351 352 352 354 353 351 351 351 352 352 352 351 351 352 353 353 354 353 350 351 353 353 353 352 352 353 353 353 355 355 355 355 356 356 354 350
351 352 352 351 352 352 351 351 351 352 352 351 350 349 350 351 351 350 351 351 352 352 353 352 350 352 353 353 353 353 352 352 352 352 352 353 353 354 354 354 354 352
350 351 352 351 350 350 350 350 350 349 348 349 350 349 348 348 348 349 349 349 350 350 350 350 352 353 353 353 353 353 353 353 351 350 350 351 351 352 352 352 351 350
350 350 351 351 350 350 349 349 348 347 346 346 347 347 346 345 346 347 347 347 348 349 349 350 351 352 352 352 353 353 353 353 352 350 348 348 349 349 350 350 349 348
351 351 351 351 351 350 349 348 347 347 347 346 345 345 345 345 345 346 346 346 346 347 348 348 349 349 348 348 349 350 350 351 350 349 347 346 347 347 346 347 346 346
350 351 351 351 351 350 349 348 348 347 347 346 346 345 345 345 345 345 346 346 346 346 346 346 347 346 345 344 345 346 348 348 348 347 346 346 347 346 347 346 346 345
350 349 350 351 352 350 349 349 348 348 347 347 347 347 347 346 346 346 346 346 346 346 346 346 347 346 346 345 345 345 345 346 346 346 346 346 347 348 348 348 347 346
348 346 348 351 352 351 350 350 350 349 348 347 347 348 348 348 347 347 347 347 347 347 347 347 347 347 347 347 346 346 346 345 345 345 345 346 347 348 348 348 348 347
348 347 351 352 351 350 349 349 350 350 349 349 348 348 349 348 348 348 348 348 348 348 349 349 349 349 348 348 348 347 347 346 346 345 345 345 346 348 348 348 347 347
349 350 352 353 352 350 349 348 348 348 348 347 347 347 348 347 347 347 346 346 346 347 348 349 349 349 348 348 348 348 348 348 348 347 347 346 347 347 347 348 348 348
350 351 352 353 352 351 350 348 347 347 347 347 348 348 348 348 348 348 348 348 347 347 347 348 348 348 348 348 348 348 349 349 349 349 349 348 348 348 348 349 349 349
351 350 351 351 352 352 350 349 349 348 348 348 348 348 348 348 348 348 348 348 348 348 348 348 348 348 348 348 348 348 348 349 349 350 350 350 350 350 350 350 350 349
Wind_Speed
21 19 19 19 19 21 21 18 17 16 17 17 17 16 15 15 15 14 15 15 13 12 12 12 11 10 10 9 9 9 9 8 8 8 9 9 9 8 8 7 5 4
20 18 17 18 19 21 20 18 16 15 15 15 15 15 15 15 15 15 15 14 12 11 11 11 11 11 10 10 9 9 8 8 8 8 8 8 9 8 8 7 6 5
20 18 17 17 18 18 18 18 17 15 14 15 14 14 14 14 15 14 14 12 11 11 11 11 11 11 11 11 11 9 8 8 8 9 8 8 8 8 8 8 6 5
19 18 17 17 17 17 17 18 17 16 15 15 15 14 14 14 14 14 13 12 12 12 12 11 11 11 11 11 12 10 9 9 9 8 8 8 8 7 7 7 6 5
18 17 16 16 16 16 17 17 17 16 15 14 14 14 14 14 14 14 13 12 12 12 12 12 11 11 11 11 11 10 10 10 9 8 7 7 6 6 7 8 7 7
18 18 17 16 16 16 16 16 16 15 14 13 13 13 13 14 14 14 14 12 12 11 11 11 11 11 11 10 10 10 10 10 10 8 7 6 6 7 8 8 9 9
18 18 17 16 16 16 15 15 15 15 14 13 13 12 12 13 13 14 14 13 12 11 11 10 10 10 10 10 10 10 10 10 10 9 9 8 7 7 7 8 9 10
18 18 18 17 17 16 16 15 15 14 13 14 14 13 12 13 12 12 12 12 12 12 11 10 10 10 10 9 9 9 9 10 10 9 8 7 6 5 6 7 9 10
18 17 18 18 16 16 16 15 15 14 14 14 14 14 13 13 11 10 11 12 12 11 11 9 9 9 9 9 9 10 10 10 10 9 8 8 7 6 6 7 9 10
19 18 18 18 16 15 15 15 15 15 15 15 13 13 13 13 12 11 10 11 11 11 11 10 8 8 8 7 7 9 9 10 10 10 10 9 8 7 6 7 8 9
17 17 19 18 17 16 15 15 16 15 15 15 15 15 15 14 13 12 10 9 9 10 11 10 9 8 8 7 7 8 8 8 8 9 10 10 9 8 8 8 8 8
16 16 18 18 18 17 15 15 16 15 15 15 15 15 15 13 13 12 12 10 9 9 11 11 10 10 9 9 8 8 8 8 7 7 9 10 10 10 10 9 8 7
16 15 15 16 16 16 16 15 15 16 15 13 14 14 13 13 12 12 13 13 12 12 12 13 13 13 12 11 10 9 10 10 9 8 8 9 9 9 10 10 9 8
17 15 15 14 13 13 14 14 15 17 15 12 13 14 13 14 13 11 11 13 14 13 12 13 14 13 12 11 11 11 12 12 11 11 10 10 10 9 10 11 10 8
18 17 16 16 16 15 15 15 16 18 17 13 12 13 13 14 13 11 10 11 13 12 12 13 13 12 11 11 11 12 14 14 14 13 13 13 12 11 12 11 10 10
19 19 19 18 18 18 18 18 18 19 19 16 14 12 12 14 14 12 11 11 12 13 12 12 11 11 11 11 11 12 13 13 14 13 13 12 11 11 11 10 10 10
20 21 22 21 20 20 19 19 19 19 18 17 16 14 13 14 14 13 13 12 13 14 12 12 12 12 12 12 11 12 12 12 12 11 10 9 8 9 9 9 9 8
23 22 23 23 22 22 21 20 20 20 18 16 16 17 16 14 13 14 14 13 13 14 13 13 14 13 12 13 12 12 12 12 12 11 10 9 9 10 10 9 9 9
26 25 25 24 24 23 22 21 21 21 19 17 16 16 15 14 14 15 15 14 14 14 15 15 15 14 13 13 13 13 12 13 13 13 13 12 13 13 13 12 12 12
27 25 25 25 25 24 23 22 22 22 21 18 16 15 15 16 16 16 15 15 15 15 16 16 15 15 14 13 13 14 14 14 14 15 16 16 16 16 16 16 15 15
26 24 23 24 26 26 24 23 23 23 22 21 19 17 17 17 18 18 17 17 17 18 18 18 17 17 16 15 15 14 14 14 15 16 18 18 19 19 19 19 19 18
25 24 24 27 28 27 26 25 24 24 24 23 22 21 20 19 19 19 19 19 19 19 20 20 20 20 19 19 18 18 18 17 17 17 18 19 20 21 22 22 21 20
25 25 26 26 26 26 26 25 25 24 23 23 23 22 21 21 20 20 19 19 18 19 19 20 20 21 21 21 20 20 19 19 20 20 19 20 21 21 22 22 21 21
25 26 27 25 24 25 24 23 22 21 21 21 22 22 22 21 21 21 20 19 19 19 19 19 19 21 21 22 22 21 19 19 20 20 21 21 21 21 21 21 21 20
24 26 26 26 25 25 23 22 20 19 18 18 18 19 19 19 18 18 18 17 18 18 19 19 20 21 22 22 22 21 20 19 19 20 22 22 22 22 22 22 21 20
22 23 24 25 23 21 20 19 19 16 15 15 15 15 15 15 15 14 14 14 15 16 17 18 19 19 19 20 19 18 18 17 18 19 20 21 21 22 21 21 20 19
Wind_Direction
195 196 197 201 201 200 202 204 201 199 198 198 202 202 197 195 193 193 195 196 201 204 200 201 202 203 204 197 193 196 195 193 192 194 196 193 198 208 208 201 196 195
196 199 200 201 201 201 204 209 208 203 201 201 203 205 201 196 195 196 197 197 201 205 206 203 200 203 209 205 198 195 196 198 196 195 198 195 197 207 211 211 214 212
198 200 201 201 202 202 204 210 212 208 205 205 205 206 204 200 199 198 197 201 210 210 208 207 205 207 209 205 203 199 197 203 202 197 199 201 203 208 209 209 214 215
197 200 202 203 204 203 203 208 211 209 207 207 207 208 206 205 204 203 202 208 220 220 211 210 211 213 212 206 208 207 200 205 205 197 199 205 206 208 209 206 206 211
196 200 202 202 203 203 204 206 208 208 206 205 206 208 209 209 207 210 213 214 221 222 214 213 213 215 217 213 215 215 206 208 211 204 204 206 205 213 221 220 218 220
196 199 202 201 200 202 203 203 204 206 205 203 206 207 209 211 212 217 221 222 224 221 214 216 216 215 218 215 214 215 211 213 217 213 209 207 205 216 227 233 235 234
197 199 201 200 199 203 202 200 203 205 204 203 206 208 208 214 218 220 223 225 226 222 216 217 218 217 219 217 213 214 214 216 221 221 217 215 214 219 233 244 247 247
200 199 201 200 200 203 204 202 203 204 204 204 205 207 209 215 220 220 220 220 219 222 221 216 217 220 220 219 216 217 220 220 224 229 224 219 220 225 236 245 249 252
202 200 203 203 199 202 207 208 207 205 205 206 204 203 204 208 215 219 219 214 211 217 219 215 219 219 219 221 219 220 225 227 230 235 235 230 231 237 245 249 249 251
205 203 205 204 200 202 208 210 211 209 206 207 207 207 208 207 208 213 217 214 210 209 207 205 209 215 221 229 227 221 222 229 236 238 240 242 241 242 251 256 253 248
204 207 209 207 203 202 208 210 210 210 210 212 215 218 220 216 209 208 209 208 210 210 209 209 209 215 226 237 240 232 222 224 236 242 246 252 253 253 260 267 265 258
203 209 211 211 208 204 205 207 209 214 218 221 224 223 223 223 220 217 213 209 209 210 215 222 225 226 231 236 239 235 225 220 227 241 250 257 260 264 269 269 267 263
204 210 210 210 212 209 207 207 212 221 222 223 227 224 221 225 226 223 219 219 218 216 215 222 229 233 233 238 240 233 228 227 228 236 244 250 256 262 265 264 262 260
203 210 210 206 207 209 209 207 213 223 222 218 222 222 220 224 224 217 214 220 222 222 219 220 226 230 228 233 239 234 231 234 237 241 245 251 257 259 260 262 261 257
201 207 210 208 208 209 207 206 213 224 225 222 222 220 217 221 223 213 210 223 227 223 220 219 220 225 225 225 231 230 230 233 238 243 248 252 256 260 264 265 261 257
202 206 210 212 215 215 214 214 218 222 225 226 225 219 215 218 218 209 205 221 230 223 221 223 222 224 228 228 230 232 232 232 236 242 247 253 260 267 274 272 262 259
206 211 213 216 219 220 220 223 223 220 221 224 222 219 218 214 211 209 207 215 224 222 222 229 227 226 231 233 235 239 238 235 235 235 237 244 249 252 259 263 260 261
207 214 217 218 219 221 223 227 227 223 222 223 220 220 223 218 213 213 213 215 220 222 226 230 228 228 233 235 237 240 238 234 231 228 227 228 231 237 243 250 258 265
206 212 217 220 220 220 222 225 226 225 225 224 221 220 222 221 218 216 218 220 222 224 230 232 230 232 236 236 236 235 233 232 231 232 234 234 236 241 246 251 259 266
211 215 219 222 222 221 222 223 223 225 225 222 218 215 215 215 216 217 219 221 221 224 230 233 233 237 240 239 236 233 229 228 230 235 240 242 243 247 251 256 260 263
222 229 230 230 228 225 222 221 221 222 224 223 221 219 219 220 221 224 225 225 226 228 232 236 239 242 244 244 242 240 236 232 233 237 242 246 248 250 253 257 260 263
230 236 234 230 230 228 224 222 221 221 222 224 226 227 228 229 230 231 233 234 235 235 237 240 243 246 248 250 250 249 248 245 243 243 245 248 250 251 254 258 262 266
231 230 227 227 228 227 225 223 222 223 224 226 229 231 232 234 235 235 235 236 238 240 241 242 244 247 251 253 254 254 252 252 251 250 248 248 250 252 255 259 262 266
230 227 224 223 223 222 222 221 221 222 225 227 230 232 235 237 239 239 240 241 241 243 244 245 247 250 252 253 254 254 253 253 253 253 252 251 251 253 255 258 262 266
231 227 221 215 213 213 214 217 221 223 223 226 230 232 234 237 239 241 243 245 246 246 248 249 249 249 251 252 253 253 254 254 254 254 253 251 250 251 252 255 259 263
221 220 217 212 208 206 208 213 219 221 222 227 232 234 236 238 239 240 241 243 246 246 246 247 248 249 251 253 254 256 256 254 253 252 250 248 246 246 249 254 258 261